Regional Weather Roundup
Issued by NWS

Home | Current Version | Previous Version | Text Only | Print | Product List | Glossary On
Versions: 1 2 3 4 5 6 7 8 9 10 11 12 13 14 15 16 17 18 19 20 21 22 23 24 25 26 27 28 29 30 31 32 33 34 35 36 37 38 39 40 41 42 43 44 45 46 47 48 49 50
000
ASUS45 KREV 011110
RWRNV
NEVADA REGIONAL WEATHER ROUNDUP
NATIONAL WEATHER SERVICE RENO NV
300 AM PST SUN MAR 01 2015

NOTE: "FAIR" INDICATES FEW OR NO CLOUDS BELOW 12,000 FEET WITH NO
SIGNIFICANT WEATHER AND/OR OBSTRUCTIONS TO VISIBILITY.

NVZ001-003-004-011200-
WESTERN NEVADA

CITY           SKY/WX    TMP DP  RH WIND       PRES   REMARKS
RENO           CLOUDY    37  31  78 N5        29.97S
CARSON CITY    CLOUDY    34  32  93 N3        29.96S
MINDEN         MOCLDY    32  32 100 NW6       29.96
SLIDE MTN        N/A     19  16  86 SE9         N/A
PYRAMID LAKE     N/A     39 N/A N/A NW6         N/A
FALLON         CLOUDY    35  33  92 N5        29.96S
LOVELOCK       MOCLDY    36  27  69 NE10      29.97F
HAWTHORNE      CLOUDY    37  36  93 NW8       29.95S
$$

NVZ002-CAZ072-073-011200-
NORTHERN AND CENTRAL SIERRA

CITY           SKY/WX    TMP DP  RH WIND       PRES   REMARKS
S. LAKE TAHOE  LGT SNOW  31  24  75 NE13G24   29.90S
TRUCKEE        FLURRIES  30  27  86 NE8       29.94S
SQUAW VLY 8000   N/A     23  23 100 CALM        N/A
SUSANVILLE     CLOUDY    36  27  69 CALM      30.01
BLUE CANYON    PTCLDY    34  24  67 NE8G22    29.89F
MAMMOTH LAKES  FAIR      21  19  93 CALM      29.89S
BRIDGEPORT     CLOUDY    23  19  85 CALM      29.87S
$$

NVZ030-031-036-011200-
NORTHERN NEVADA

CITY           SKY/WX    TMP DP  RH WIND       PRES   REMARKS
ELKO           CLEAR     30  21  69 NE7       29.98R
WINNEMUCCA     CLEAR     31  24  75 N15       30.01S
WENDOVER       CLOUDY    37  18  44 N17G23    30.00R
$$

NVZ035-037-011200-
CENTRAL NEVADA

CITY           SKY/WX    TMP DP  RH WIND       PRES   REMARKS
ELY            LGT SNOW  27  26  96 N5        29.95S FOG
EUREKA           N/A     29  26  89 CALM      29.94S
$$

NVZ013-014-011200-
SOUTH CENTRAL NEVADA

CITY           SKY/WX    TMP DP  RH WIND       PRES   REMARKS
TONOPAH        CLOUDY    29  24  82 N7        29.92S
$$

NVZ017-020-022-011200-
SOUTHERN NEVADA

CITY           SKY/WX    TMP DP  RH WIND       PRES   REMARKS
LAS VEGAS      MOCLDY    51  34  52 CALM      29.86S
N. LAS VEGAS   CLOUDY    48  31  51 N3        29.89S
NELLIS AFB     CLOUDY    50  35  57 W2        29.90R
HENDERSON      CLOUDY    47  33  58 S7        29.91S
MERCURY        MOCLDY    41  30  65 NE9       29.90S
$$



USA.gov is the U.S. government's official web portal to all federal, state and local government web resources and services.